sim
Sign-in with your pilot id or email,
or register
Callsign
Passwort

Schedule Details

Flight Number: RYR6442 (3)
Departure: Brussels South Charleroi Airport (EBCI) at 12:30
Arrival: Fuerteventura Airport (GCFV) at 16:50
Route: Ryanair Passenger Schedule. Enter filed route here before submitting Pirep.

Weather Information
Getting current METAR information for EBCI 181950Z 08007KT CAVOK 16/05 Q1023 NOSIG
Getting current METAR information for GCFV 182000Z 36016KT 9999 FEW045 18/11 Q1019

Schedule Frequency

Route Map